Regional Weather Roundup
Issued by NWS

Home | Current Version | Previous Version | Text Only | Print | Product List | Glossary Off
Versions: 1 2 3 4 5 6 7 8 9 10 11 12 13 14 15 16 17 18 19 20 21 22 23 24 25 26 27 28 29 30 31 32 33 34 35 36 37 38 39 40 41 42 43 44 45 46 47 48 49 50

000
ASUS43 KMKX 270721
RWRWI

WISCONSIN REGIONAL WEATHER ROUNDUP
NATIONAL WEATHER SERVICE MILWAUKEE/SULLIVAN WI
200 AM CDT MON APR 27 2015

NOTE: "FAIR" INDICATES FEW OR NO CLOUDS BELOW 12,000 FEET WITH NO
SIGNIFICANT WEATHER AND/OR OBSTRUCTIONS TO VISIBILITY.

WIZ001-002-006>008-014>016-023>028-270800-
NORTHWEST WISCONSIN

CITY           SKY/WX    TMP DP  RH WIND       PRES   REMARKS
SUPERIOR ARPT  CLEAR     28  27  96 W3        30.21R
ASHLAND        CLEAR     28  27  96 S3        30.19F
HAYWARD        CLEAR     32  26  78 CALM      30.17S
SIREN          CLEAR     32  24  72 CALM      30.18F
CUMBERLAND     CLEAR     34  27  75 CALM      30.16S
RICE LAKE      CLEAR     34  29  83 CALM      30.18S
CHETEK         CLEAR     37  29  73 NW3       30.16F
LADYSMITH      CLEAR     35  27  73 N5        30.17S WCI  30
EAU CLAIRE     CLEAR     40  23  50 N6        30.15R
MENOMONIE      CLEAR     41  27  57 N3        30.16S
NEW RICHMOND   CLEAR     34  27  74 CALM      30.17S
OSCEOLA        CLEAR     36  28  75 CALM      30.20S
$$

WIZ003>005-009-010-017-018-270800-
NORTH CENTRAL WISCONSIN

CITY           SKY/WX    TMP DP  RH WIND       PRES   REMARKS
MANITOWISH WTR CLEAR     33  28  81 N3        30.14S
ARBOR VITAE    CLEAR     32  27  80 CALM      30.13S
WOODRUFF       CLEAR     32  27  80 CALM      30.13S
RHINELANDER    CLEAR     33  25  72 CALM      30.13F
EAGLE RIVER    CLEAR     31  26  83 NW3       30.12F
LAND O LAKES   CLEAR     34  28  77 N3        30.14S
PHILLIPS       CLEAR     32  27  81 CALM      30.14S
TOMAHAWK       CLEAR     29  26  88 CALM      30.14S
MEDFORD        CLEAR     34  28  77 NE3       30.13S
MERRILL        CLEAR     36  29  76 N3        30.13S
$$

WIZ029-030-035-036-043>047-270800-
CENTRAL WISCONSIN

CITY           SKY/WX    TMP DP  RH WIND       PRES   REMARKS
WAUSAU         CLEAR     41  30  65 CALM      30.11S
MOSINEE        CLEAR     39  30  70 N5        30.13F
MARSHFIELD     CLEAR     42  29  59 NE6       30.12S
STEVENS POINT  CLEAR     33  27  78 CALM      30.13S
WAUPACA        CLEAR     37  31  79 CALM      30.12S
WAUTOMA        CLEAR     33  28  82 CALM      30.12S
WISC RAPIDS    CLEAR     39  27  62 CALM      30.14R
CAMP DOUGLAS   CLEAR     34  30  83 E2        30.11S
$$

WIZ011>013-019>022-031-037>040-048>050-270800-
NORTHEAST WISCONSIN

CITY           SKY/WX    TMP DP  RH WIND       PRES   REMARKS
ANTIGO         CLEAR     34  29  83 N5        30.11F WCI  29
SHAWANO          N/A     39  30  69 CALM      30.11F
OCONTO         CLEAR     40  29  64 NW3       30.10S
STURGEON BAY   MOCLDY    41  28  60 N8        30.10F
GREEN BAY      CLEAR     41  31  67 N8        30.10S
MANITOWOC      CLOUDY    42  32  67 N8        30.08F
APPLETON       CLEAR     36  30  80 NW7       30.10F WCI  30
CLINTONVILLE   CLEAR     37  32  81 CALM      30.11S
OSHKOSH        CLEAR     41  31  67 NW5       30.10S
$$

WIZ032>034-041-042-053>061-270800-
SOUTHWEST WISCONSIN

CITY           SKY/WX    TMP DP  RH WIND       PRES   REMARKS
LA CROSSE      CLEAR     47  31  53 N3        30.12S
SPARTA         CLEAR     41  28  60 CALM      30.13R
VIROQUA        CLEAR     42  29  59 NE7       30.10S
BOSCOBEL       CLEAR     43  31  62 NE6       30.12R
PRAIRIE DU CHI CLEAR     40  32  71 CALM      30.10R
PLATTEVILLE    CLEAR     39  30  69 E8        30.10R WCI  34
$$

WIZ056-057-062-063-064-067-068-270800-
SOUTH CENTRAL WISCONSIN

CITY           SKY/WX    TMP DP  RH WIND       PRES   REMARKS
REEDSBURG      CLEAR     41  30  65 CALM      30.11S
BARABOO/DELLS  CLEAR     37  28  71 E3        30.11S
LONE ROCK      CLEAR     41  29  62 E5        30.11S
MINERAL POINT  CLEAR     43  28  56 E8        30.10R
MADISON        CLEAR     37  29  72 N5        30.11S WCI  33
MIDDLETON      CLEAR     38  29  71 CALM      30.11S
WATERTOWN      CLEAR     33  32  98 CALM      30.09F
MONROE         CLEAR     39  30  70 NE5       30.09S
JANESVILLE     CLEAR     37  28  70 CALM      30.10R
$$

WIZ051-052-058>065-066-070>072-270800-
SOUTHEAST WISCONSIN

CITY           SKY/WX    TMP DP  RH WIND       PRES   REMARKS
MILWAUKEE      CLEAR     40  30  67 N9        30.08F WCI  34
WAUKESHA       CLEAR     36  30  80 NW3       30.10S
MILWAUKEE/TIMM CLEAR     36  28  75 NW5       30.09F WCI  32
RACINE         CLEAR     40  31  70 N9        30.09S WCI  34
BURLINGTON     CLEAR     33  28  81 N3        30.09S
KENOSHA        CLEAR     39  31  72 N6        30.07S WCI  35
FOND DU LAC    CLEAR     38  31  76 W5        30.10S WCI  34
SHEBOYGAN      MOCLDY    39  30  70 N8        30.08F WCI  33
WEST BEND      CLEAR     36  30  80 NW5       30.08F WCI  32
JUNEAU         CLEAR     34  30  85 CALM      30.11S
$$

LSZ147-162-270800-
LAKE SUPERIOR

STATION/POSITION TIME  TEMP    WIND        PRES    WAVE
                       AIR SEA DIR/SP/G            HT/PER
                 (UTC) (F)     (DEG/KT/KT) (MB)    (FT/S)
W MID LAKE BUOY  0650   37 35  300/ 10/ 10 1023.0F   0
DEVILS ISLAND    0700   40     340/  4/  4 1023.0F
PORT WING        0600   31     170/  3/  4 1022.7
SAXON HARBOR     0600   29      CALM  /  2 1022.0S
$$

LMZ867-665-643>646-270800-
LAKE MICHIGAN

STATION/POSITION TIME  TEMP    WIND        PRES    WAVE
                       AIR SEA DIR/SP/G            HT/PER
                 (UTC) (F)     (DEG/KT/KT) (MB)    (FT/S)
CHAMBERS ISLAND  0600   41     320/  4/  6 1019.3R
NORTHPORT PIER   0600   41     310/ 10/ 13 1018.6S
SISTER BAY       0647   40     360/  9/ 10   N/A
KEWAUNEE LAKESHO 0606   43     330/  5/ 10 1017.8R
SHEBOYGAN LAKESH 0700   43     330/  9/ 11 1019.2F
PORT WASHINGTON  0600   41     320/  5/  7 1019.3
MILWAUKEE LAKESH 0700   43     340/  7/  8   N/A
KENOSHA   LAKESH 0700   43     360/ 13/ 17 1018.3R
$$

TC  - TEMPERATURE IN CELSIUS
VSB - VISIBILITY IN STATUTE MILES
WCI - WIND CHILL INDEX
HX  - HEAT INDEX



USA.gov is the U.S. government's official web portal to all federal, state and local government web resources and services.